Location: Bright Sky Observatory
(40.7821°N, 74.2425°W)
Time: 00:22:05
(UTC-04:00)

Daily predictions for brighter satellites

Satellite Brightness Start Highest point End
(mag) Time Altitude Azimuth Time Altitude Azimuth Time Altitude Azimuth
Cosmos 44 Rocket 3.8 00:03:45 38° WSW 00:05:34 61° NW 00:10:47 10° NNE
NOSS 3-4 (A) 4.4 00:07:02 32° ESE 00:07:02 32° ESE 00:12:19 10° NE
NOSS 3-4 (C) 4.4 00:07:09 32° ESE 00:07:09 32° ESE 00:12:24 10° NE
NOSS 2-3 (D) 4.5 00:05:33 34° WSW 00:07:35 58° NW 00:13:12 10° NNE
Cosmos 389 Rocket 3.8 00:04:13 10° NNW 00:06:44 36° NW 00:06:44 36° NW
Terra 3.8 00:09:58 16° WSW 00:11:01 17° W 00:14:07 10° NW
Okean 1-7 3.7 00:08:22 10° NNW 00:12:15 43° W 00:12:15 43° W
In-Cosmos 22 Rocket 4.4 00:11:14 52° SW 00:12:32 69° W 00:18:19 10° N
Cosmos 158 Rocket 3.9 00:07:52 10° NNW 00:13:07 72° WSW 00:13:25 69° SW
ALOS 2 2.9 00:13:37 60° ENE 00:13:37 60° ENE 00:17:45 10° N
GEOS 3 Rocket 4.2 00:13:50 40° E 00:15:19 52° NE 00:20:21 10° NNW
Uosat 12 SS-18 rocket 4.3 00:16:26 69° WSW 00:16:52 75° WNW 00:21:22 10° NNE
Meteor 2-3 Rocket 3.9 00:17:03 53° SW 00:18:16 69° W 00:23:59 10° N
SL-08 ROCKET BODY 4.5 00:23:36 55° SSW 00:24:59 75° W 00:31:10 10° N
Meteor 2-10 Rocket 3.6 00:22:11 10° N 00:27:52 86° W 00:28:33 70° S
Cosmos 2084 Rocket 4.2 00:28:49 43° NW 00:28:49 43° NW 00:32:13 10° NNE
Cosmos 2263 Rocket 3.2 00:29:49 32° E 00:29:49 32° E 00:34:29 10° NE
Meteor 1-10 Rocket 4.2 00:26:33 10° N 00:32:32 84° E 00:33:24 67° SSE
MOS 1-B Rocket 4.4 00:31:37 41° ESE 00:32:52 48° ENE 00:38:13 10° N
Cosmos 921 Rocket 3.4 00:37:04 56° NNE 00:37:04 56° NNE 00:40:27 10° NNE
Cosmos 1356 Rocket 3.9 00:40:30 55° N 00:40:30 55° N 00:43:47 10° N
Lacrosse 4 Rocket 3.8 00:38:16 10° WNW 00:40:03 15° W 00:40:03 15° W
Cosmos 1674 Rocket 3.8 00:38:30 10° N 00:42:28 69° NNW 00:42:28 69° NNW
Cosmos 1607 3.7 00:38:43 10° NW 00:44:53 81° WSW 00:45:42 67° S
SL-16 R/B 3.9 00:41:57 10° NW 00:45:57 20° W 00:46:17 20° WSW
ATLAS 3B R/B 3.8 00:40:39 10° NW 00:46:05 26° WSW 00:46:35 25° WSW
Nadezhda 3 Rocket 3.9 00:43:02 10° N 00:49:17 87° W 00:50:20 64° S
CZ-2C R/B 2.9 00:45:05 10° NNE 00:50:05 50° E 00:50:05 50° E
Cosmos 1689 Rocket 4.4 00:52:09 27° NNW 00:52:09 27° NNW 00:53:49 10° NNW
Cosmos 1975 Rocket 4.0 00:50:49 10° N 00:54:40 40° ENE 00:54:40 40° ENE
Cosmos 44 4.2 00:57:49 39° W 00:59:15 50° NW 01:04:35 10° NNE
Cosmos 1782 3.8 00:56:13 10° NNW 00:59:07 41° NW 00:59:07 41° NW
USA 238 DEB 4.1 00:54:49 10° NW 01:01:28 46° WSW 01:02:06 45° SW
Cosmos 1908 Rocket 3.8 01:02:05 65° N 01:02:05 65° N 01:05:50 10° N
USA 238 4.1 00:54:55 10° NW 01:01:33 46° WSW 01:02:13 45° SW
Cosmos 1340 Rocket 4.5 01:05:03 26° WNW 01:05:03 26° WNW 01:07:59 10° NNW
Cosmos 1943 3.0 01:01:57 10° NNW 01:07:41 86° WSW 01:08:08 76° S
Okean 3 3.9 01:05:04 10° N 01:08:50 61° NNE 01:08:50 61° NNE
Geosat 3.8 01:04:30 10° NNE 01:09:34 83° ESE 01:09:37 83° SE
BREEZE-M DEB (TANK) 3.3 01:04:22 10° WNW 01:09:06 46° WNW 01:09:06 46° WNW
Landsat 5 4.5 01:10:52 41° WNW 01:10:52 41° WNW 01:14:35 10° NNW
Cosmos 1238 Rocket 4.2 01:14:41 10° NNW 01:16:55 31° NNW 01:16:55 31° NNW
H-2A R/B 4.1 01:14:57 10° NNW 01:18:33 27° WNW 01:18:48 27° WNW
Cosmos 1295 Rocket 4.4 01:17:48 63° SSW 01:18:55 88° W 01:25:19 10° N
CENTAUR R/B 4.4 01:12:14 10° NNW 01:19:09 35° NE 01:26:29 10° ESE
SeaSat 1 4.1 01:23:17 22° W 01:23:17 22° W 01:26:11 10° NW
Cosmos 1606 4.0 01:19:00 10° NNW 01:21:36 36° NW 01:21:36 36° NW
Meteor 1-27 Rocket 3.9 01:19:51 10° NNW 01:25:34 59° W 01:26:02 57° WSW
Helios 1A Rocket 4.0 01:23:09 10° N 01:26:47 38° WNW 01:26:47 38° WNW
RESURS DK-1 2.9 01:32:36 57° NNE 01:32:36 57° NNE 01:35:58 10° NNE
CZ-4C R/B 3.0 01:25:12 10° NW 01:32:14 57° WSW 01:33:37 50° SSW
Cosmos 1408 3.8 01:33:18 40° NNW 01:33:18 40° NNW 01:36:00 10° N
NOSS 3-2 (C) 3.9 01:27:47 10° NW 01:35:21 77° WSW 01:38:05 46° SSE
CZ-4B R/B 4.3 01:37:17 10° WNW 01:37:17 10° WNW 01:37:24 10° WNW
Cosmos 1624 Rocket 4.0 01:35:46 64° ESE 01:35:56 65° ESE 01:41:09 10° NNE
Cosmos 2151 Rocket 4.2 01:37:21 47° E 01:37:21 47° E 01:41:26 10° NNE
Meteor 1-14 Rocket 4.4 01:39:42 57° SSE 01:40:41 68° E 01:46:32 10° NNE
Cosmos 1867 3.5 01:39:57 10° NW 01:45:23 66° WSW 01:45:23 66° WSW
CZ-2C R/B 3.2 01:47:42 63° SW 01:48:22 70° WSW 01:53:57 10° NNW
Cosmos 1825 3.9 01:57:17 25° WNW 01:57:17 25° WNW 01:59:50 10° NNW
NOSS 3-2 (A) 4.2 01:49:38 10° NW 01:56:52 49° WSW 01:58:20 44° SSW
NOSS 3-4 (A) 4.2 01:54:26 30° WSW 01:57:19 48° NW 02:03:42 10° NNE
NOSS 3-4 (C) 4.2 01:54:33 30° WSW 01:57:24 49° NW 02:03:48 10° NNE
Cosmos 1452 Rocket 4.3 01:57:07 37° ESE 01:57:47 39° ESE 02:02:38 10° NE
SL-8 Rocket 4.5 02:00:20 41° WSW 02:01:48 49° WNW 02:07:56 10° N
Meteor 2-8 Rocket 4.3 01:58:41 10° N 02:04:48 84° W 02:06:15 55° S
Meteor 1-18 Rocket 4.4 01:59:11 10° N 02:04:52 70° E 02:06:31 47° SSE
BREEZE-M DEB (TANK) 3.7 01:53:36 10° WNW 02:05:01 65° SW 02:05:38 60° S
Cosmos 1242 Rocket 3.7 02:03:18 10° NNW 02:05:38 39° NNW 02:05:38 39° NNW
Cosmos 1844 Rocket 3.2 02:08:12 42° SE 02:09:16 47° ESE 02:14:41 10° NE
Cosmos 1339 Rocket 4.3 02:03:18 10° N 02:09:24 84° W 02:10:55 54° S
GP-B 4.4 02:06:22 10° NNE 02:10:21 31° E 02:11:21 28° ESE
Cosmos 1812 3.4 02:08:23 10° N 02:12:10 49° E 02:12:11 49° E
Meteor 1-20 Rocket 4.5 02:10:58 47° SSE 02:12:29 63° E 02:18:11 10° NNE
Gbstr 26 Del rocket 3.4 02:13:29 49° E 02:13:29 49° E 02:16:28 10° ENE
Cosmos 2263 Rocket 3.2 02:11:29 29° W 02:13:18 36° WNW 02:18:33 10° N
Okean 2 Rocket 4.5 02:15:39 27° WNW 02:15:44 27° WNW 02:19:36 10° NNW
Cosmos 1190 Rocket 3.9 02:17:47 10° NNW 02:22:59 69° WSW 02:23:36 62° SSW
Cosmos 1844 4.2 02:25:12 39° SSE 02:26:43 49° ESE 02:32:14 10° NE
ATLAS 5 CENTAUR R/B 3.9 02:23:03 10° NNW 02:28:26 34° NE 02:34:09 10° ESE
Cosmos 967 Rocket 4.5 02:27:34 46° SW 02:29:42 83° WNW 02:36:13 10° NNE
CZ-2C R/B 4.3 02:26:17 10° NNW 02:30:01 20° WNW 02:31:36 18° W
Cosmos 1300 Rocket 3.5 02:29:48 68° SE 02:30:11 75° E 02:34:34 10° NNE
SL-08 R/B 3.9 02:29:13 31° SE 02:31:21 55° ENE 02:36:07 10° N
Abrixas rocket 4.2 02:31:34 23° NW 02:32:38 27° NNW 02:35:35 10° NE
COSMOS 2487 4.5 02:30:29 10° N 02:33:37 27° ENE 02:35:21 18° ESE
Cosmos 2056 Rocket 4.2 02:32:51 36° W 02:34:06 42° WNW 02:39:05 10° N
Cosmos 407 Rocket 3.4 02:30:34 10° NNW 02:35:42 66° WSW 02:36:34 56° SSW
Cosmos 2278 Rocket 3.0 02:36:48 30° SSE 02:38:47 40° ESE 02:44:03 10° NE
Cosmos 724 4.3 02:35:51 10° NW 02:41:56 69° WSW 02:44:32 36° S
NOSS 2-2 (E) 3.5 02:43:13 60° SSE 02:43:44 66° ESE 02:48:30 10° NE
AQUA 4.1 02:39:30 10° NNE 02:44:14 61° E 02:45:34 43° SSE
Cosmos 1536 Rocket 4.3 02:40:40 10° NNW 02:44:35 37° W 02:44:35 37° W
COSMOS 2406 3.4 02:39:52 10° NNW 02:45:30 55° WSW 02:46:47 45° SSW
Cosmos 676 Rocket 3.9 02:42:11 10° NNW 02:47:21 70° WSW 02:48:42 48° S
USA 161 3.8 02:49:31 18° E 02:50:29 21° ENE 02:52:49 10° NNE
Okean 1 3.3 02:46:38 10° NNW 02:50:36 62° W 02:50:39 62° W
Cosmos 1461 3.4 02:50:09 47° SSE 02:51:07 57° ESE 02:55:39 10° NE
Cosmos 1400 Rocket 4.4 02:50:23 22° SE 02:51:46 27° E 02:55:07 10° NNE
SL-27 R/B 3.7 02:52:24 10° NW 02:54:52 31° WNW 02:54:52 31° WNW
Iridium 4 Rocket 4.2 02:52:04 10° NNW 02:56:27 35° W 02:57:15 33° WSW
Cosmos 2082 Rocket 4.4 02:52:38 10° N 02:57:18 25° NE 03:01:57 10° ESE
MINOTAUR IV R/B 4.5 02:59:36 53° SSW 03:00:38 87° WNW 03:05:08 10° NNE
Landsat 4 4.4 03:01:34 38° W 03:01:34 38° W 03:04:45 10° NNW
Cosmos 1602 3.6 03:03:09 59° S 03:03:49 82° E 03:07:41 10° N
USA 234 3.2 02:57:33 10° SE 03:04:06 87° NE 03:10:41 10° NW
CENTAUR R/B 3.0 03:02:38 10° NW 03:10:28 69° WSW 03:18:42 10° SSE
NPP 3.8 03:05:34 10° N 03:10:54 63° WNW 03:13:05 35° SW
Cosmos 1934 Rocket 3.9 03:08:09 33° SSW 03:11:07 77° W 03:17:17 10° N
Cosmos 1954 Rocket 4.1 03:07:15 10° NNW 03:12:17 53° WSW 03:13:59 37° SSW
IRS-1D 4.4 03:07:33 10° NNE 03:12:19 40° E 03:15:27 19° SSE
Meteor 2-4 Rocket 4.0 03:08:21 10° N 03:13:41 60° ENE 03:18:18 13° SSE
Okean 1 Rocket 3.8 03:16:19 33° WSW 03:17:17 37° WNW 03:21:28 10° N
CBERS 1 LM4 rocket 4.3 03:12:42 10° NNE 03:17:36 84° WNW 03:19:36 35° SSW
Meteor 2-15 Rocket 4.4 03:15:49 10° N 03:22:00 88° E 03:26:48 17° S
Cosmos 1315 Rocket 4.1 03:19:38 19° SSE 03:22:00 37° E 03:25:44 10° NNE
Okean 1-7 Rocket 4.3 03:19:18 10° NNW 03:23:29 36° W 03:24:24 33° WSW
CZ-2D R/B 3.0 03:19:25 10° NNE 03:24:40 45° E 03:28:56 15° SSE
SAR-Lupe-3 4.4 03:25:22 41° S 03:26:31 80° WSW 03:30:05 10° NNW
ERS-2 2.8 03:23:38 10° N 03:27:10 42° WNW 03:28:00 36° WSW
Cosmos 1025 Rocket 3.0 03:27:02 10° NNW 03:31:18 63° W 03:33:09 32° SSW
Timation 2 Rocket 4.0 03:26:24 10° NNW 03:32:33 80° ENE 03:38:32 10° SSE
Cosmos 1833 Rocket 4.2 03:30:13 10° N 03:35:25 37° ENE 03:40:36 10° SE
UNK 4.1 03:32:40 10° SSE 03:37:13 64° ENE 03:41:50 10° N
Okean O Rocket 3.7 03:34:55 10° NE 03:38:14 21° E 03:41:33 10° SE
Cosmos 1455 Rocket 3.3 03:36:21 22° S 03:39:10 70° E 03:43:36 10° NNE
ARIANE 5 R/B 2.5 03:34:35 10° NNE 03:39:36 84° ESE 03:42:54 22° S
UNKNOWN OBJECT B 3.9 03:39:31 10° NNE 03:43:26 42° E 03:46:43 13° SSE
Cosmos 1536 3.5 03:47:37 27° SW 03:49:11 39° WNW 03:53:01 10° N
Cosmos 1605 Rocket 4.3 03:47:07 22° SSW 03:50:59 53° W 03:57:08 10° N
Cosmos 1356 3.9 03:50:06 31° SW 03:51:25 47° WNW 03:54:52 10° N
Okean 2 3.3 03:48:19 10° NNW 03:52:25 73° W 03:55:30 17° S
Cosmos 1844 Rocket 4.1 03:49:51 15° WSW 03:53:22 26° NW 03:58:07 10° N
Cosmos 1140 Rocket 4.3 03:52:25 10° NW 03:56:53 31° W 03:59:21 21° SW
SL-16 R/B 2.5 03:51:45 10° S 03:57:59 75° WSW 04:04:14 10° NNW
Resurs 1-4 Rocket 2.1 03:53:25 10° NNE 03:58:45 89° WNW 04:03:07 15° SSW
Gbstr 26 Del rocket 4.5 03:56:21 10° W 03:59:42 26° NNW 04:02:53 10° NE
ATLAS 2A CENTAUR R/B 4.2 03:54:19 19° SW 03:59:50 34° S 04:31:45 10° SE
Cosmos 1331 Rocket 4.2 03:55:39 16° S 03:59:53 68° ESE 04:05:04 10° NNE
EO 1 Del DPAF 3.3 03:59:24 14° S 04:02:37 64° W 04:06:29 10° NNW
Cosmos 1544 Rocket 4.1 04:02:40 21° SW 04:05:10 42° WNW 04:09:21 10° N
ADEOS 4.5 04:01:08 10° N 04:05:50 34° WNW 04:09:11 17° WSW
COSMOS 2487 4.1 04:06:34 10° NW 04:09:02 17° W 04:09:22 17° WSW
Cosmos 1633 4.1 04:10:16 17° WSW 04:11:43 22° WNW 04:14:37 10° NNW
ATLAS 5 CENTAUR R/B 2.6 04:07:32 10° NW 04:13:23 50° WSW 04:19:34 10° S
BREEZE-M DEB (TANK) 4.4 04:10:41 10° WNW 04:15:05 23° N 04:17:20 10° NE
USA 161 3.6 04:20:43 13° W 04:20:52 13° W 04:22:24 10° WNW
USA 129 2.2 04:19:26 10° SSE 04:21:28 56° ENE 04:23:27 10° N
Cosmos 2278 Rocket 3.4 04:18:39 13° WSW 04:22:56 30° NW 04:27:54 10° N
Cosmos 2297 4.1 04:20:31 15° SW 04:25:10 53° WNW 04:30:46 10° NNE
Cosmos 2173 Rocket 4.0 04:19:44 10° SSW 04:25:49 72° W 04:32:00 10° N
Cosmos 1400 Rocket 4.4 04:26:04 13° WSW 04:28:17 19° WNW 04:31:13 10° NNW
CZ-2C R/B 3.9 04:24:12 10° SSE 04:28:57 86° ENE 04:33:46 10° NNW
Cosmos 2285 Rocket 4.3 04:27:39 10° S 04:33:53 69° ESE 04:40:10 10° NNE
CZ-2D R/B 3.5 04:32:34 10° N 04:36:32 61° WNW 04:40:33 10° SSW
Cosmos 1459 Rocket 4.2 04:32:01 10° SSW 04:38:13 56° W 04:44:24 10° N
Cosmos 1302 Rocket 4.0 04:34:07 10° SSW 04:39:20 90° WNW 04:44:37 10° NNE
Cosmos 1802 Rocket 4.1 04:35:24 10° SSW 04:41:27 62° W 04:47:32 10° N
Cosmos 2082 Rocket 2.4 04:36:09 10° NNW 04:41:40 50° WSW 04:47:08 10° S
CZ-4B R/B 3.4 04:36:04 10° NNE 04:41:47 80° ESE 04:47:25 10° SSW
BREEZE-M DEB (TANK) 1.7 04:42:38 10° WSW 04:45:17 84° SSE 04:48:47 10° ENE
USA 234 4.2 04:42:27 10° S 04:47:34 24° WSW 04:52:43 10° WNW
Cosmos 1825 Rocket 3.9 04:48:25 10° N 04:52:47 73° E 04:57:10 10° SSE
PSLV R/B 3.9 04:51:53 10° SW 04:55:08 43° SSE 04:58:20 10° E
Cosmos 2084 3.7 04:54:39 10° SSW 04:58:27 56° ESE 05:02:13 10° NE
Cosmos 1743 2.9 04:54:46 10° S 04:58:35 75° E 05:02:24 10° N
Cosmos 1726 Rocket 4.2 04:55:31 10° S 04:59:51 60° E 05:04:12 10° NNE
Cosmos 1515 4.0 04:56:12 10° NNW 04:59:53 47° W 05:03:34 10° SSW
Cosmos 1500 3.4 04:56:26 10° SSW 05:00:14 54° W 05:04:05 10° N
